User: anonymous   Login
Location: Unspecified
(0.0000°N, 0.0000°E)
Time: 23:49:34
(UTC+00:00)
Language:

SBIRS GEO 3 (USA 273) - Orbit

View from above orbital plane
View from above orbital plane
View from above satellite
View from above satellite

Ground track
Ground track

The orbit data is extracted from the following two-line orbital elements,

1 41937U 17004A   17315.34689787 0.00000000  00000-0  00000-0 0    08
2 41937   5.5770 314.6282 0003485 259.3734 100.5271  1.00270000    05
Epoch (UTC): 11 November 2017 08:19:31
Eccentricity: 0.0003485
inclination: 5.5770°
perigee height: 35772 km
apogee height: 35801 km
right ascension of ascending node: 314.6282°
argument of perigee: 259.3734°
revolutions per day: 1.00270000
mean anomaly at epoch: 100.5271°
orbit number at epoch: 0

The dashed part of the orbit path shows where the satellite is in the earth's shadow,  

DLR